Content
SEND FEEDBACK

Daily
Averages
Monthly
Summary
United States of America

ROOSEVELT, OKLAHOMA


Home > North America > United States > Oklahoma
Elevation: 1460 feet     Latitude: 34 51N     Longitude: 099 01W

WEATHER
 
SELECT A DAY
Number of Records: 336,019;   Date Range: 1/1/95 - 8/30/14
 
SHARE

PRINT THIS DATA

[ ← Previous Day ]
WEATHER ALMANAC - JANUARY 23, 2013
[ Next Day → ]
[ °C ]   °F
Weather ElementAverageHighLow
Temperature46.2 °F66 °F (2:53 pm)28.9 °F (6:53 am)
Dewpoint38 °F44.1 °F (2:53 pm)27 °F (6:53 am)
Humidity76 %97 % (11:53 pm)43 % (3:53 pm)
Barometer30.16 in30.24 in (10:53 am)30.10 in (3:53 pm)
Wind Speed5.3 mph15 mph (3:53 pm)
Weather ElementAverage
Visibility8 mi
Wind DirectionESE (95.7 °)

Weather ElementTotal
Precipitation---
Heating Degree Days17.6 (Base 65)
Averaged from 23 records on January 23, 2013
WEATHER CONDITIONS BREAKOUT
WIND DIRECTION BREAKOUT
WEATHER BY HOUR - JANUARY 23, 2013
[ °C ]   °F
Local TimeTemperatureDewpointHumidityBarometerVisibilityWind DirectionWind SpeedGust SpeedPrecipitationEventsConditions
1:53 AM37.9 °F33.1 °F83 %30.18 in10.0 miEast (80°)4.6 mphClear
2:53 AM35.1 °F30.9 °F85 %30.19 in10.0 miENE (60°)4.6 mphClear
3:53 AM33.1 °F30.9 °F92 %30.18 in10.0 miEast (80°)5.8 mphClear
4:53 AM34.0 °F30.9 °F89 %30.17 in9.0 miCalmClear
5:53 AM30.9 °F28.9 °F92 %30.18 in8.0 miCalmClear
6:53 AM28.9 °F27.0 °F92 %30.21 in7.0 miNE (40°)4.6 mphClear
7:53 AM28.9 °F27.0 °F92 %30.23 in4.0 miENE (70°)3.5 mphClear
8:53 AM35.1 °F32.0 °F89 %30.21 in5.0 miCalmClear
9:53 AM45.0 °F39.9 °F82 %30.22 in6.0 miSSW (200°)4.6 mphHaze
10:53 AM51.1 °F41.0 °F68 %30.24 in8.0 miCalmClear
11:53 AM57.0 °F42.1 °F57 %30.21 in10.0 miCalmClear
12:53 PM60.1 °F42.1 °F51 %30.17 in10.0 miSW (230°)9.2 mphClear
1:53 PM64.0 °F43.0 °F46 %30.14 in10.0 miSSW (210°)6.9 mphClear
2:53 PM66.0 °F44.1 °F45 %30.12 in10.0 miSSW (200°)12.7 mphClear
3:53 PM66.0 °F43.0 °F43 %30.10 in10.0 miSSW (200°)15.0 mphClear
4:53 PM62.1 °F44.1 °F52 %30.11 in10.0 miSSW (200°)8.1 mphClear
5:53 PM55.0 °F44.1 °F67 %30.12 in9.0 miSW (220°)5.8 mphClear
6:53 PM53.1 °F44.1 °F71 %30.14 in10.0 miCalmClear
7:53 PM48.0 °F42.1 °F80 %30.15 in8.0 miENE (70°)4.6 mphClear
8:53 PM46.0 °F43.0 °F89 %30.14 in7.0 miEast (80°)5.8 mphClear
9:53 PM44.1 °F41.0 °F89 %30.12 in6.0 miESE (120°)6.9 mphClear
10:53 PM42.1 °F41.0 °F96 %30.13 in5.0 miENE (70°)8.1 mphClear
11:53 PM39.9 °F39.0 °F97 %30.13 in3.0 miENE (70°)10.4 mphClear
Hourly data recorded from KHBR, located miles away from Roosevelt, Oklahoma







STORIES FROM OUR PARTNERS